R/V Oceanus Calliope CSV data file - OC468-I  (Time stamps are GMT)
Date, Time_GMT, Depth12, Depth35, WXTP_Ta, WXTS_Ta, AT, WXTP_Pa, WXTS_Pa, BPR, Dec_Lat, Dec_Lon, SSCND, SSTMP, IMET_PRC, PRC, COG, SOG, WXTP_Rc, WXTS_Rc, WXTP_Ri, WXTS_Ri, WXTP_Ua, WXTS_Ua, WXTP_Dm, WXTS_Dm, WXTP_Sm, WXTS_Sm, HRH, SBE45C, SBE45S, SBE45T, SBE45V, SBE48, Salinity, FLR, HDT, SPD, SWR, WXTP_TD, WXTS_TD, Wnd_TD, WXTP_TS, WXTS_TS, Wnd_TS, HdChkSum=6C
2010/08/14, 00:00:21, 760.70, 0.00, 29.3, 29.20, 29.30, 1011.4, 1011.5, 1011.42, 33.02195, -76.49643, 64.3845, 34.3147, 0.00, 37.87, 206.8, 10.20, 37.9, 37.88, 0.0, 0.0, 81.0, 82.9, 311, 320, 5.1, 3.8, 81.00, 64.16000, 35.0540, 35.2906, 1555.753, 29.99, 35.8695, 114.56, 208.2, 11.96, -0.11, 92.2, 75.1, 87.3, 4.342, 3.420, 4.5629, 6C
2010/08/14, 00:01:21, 761.20, 0.00, 29.3, 29.20, 29.30, 1011.4, 1011.5, 1011.42, 33.01945, -76.49800, 64.3941, 34.3089, 0.00, 37.87, 208.0, 10.20, 37.9, 37.88, 0.0, 0.0, 80.8, 82.8, 312, 320, 5.4, 4.2, 80.80, 64.15000, 35.0462, 35.2943, 1555.752, 29.99, 35.8796, 117.04, 207.4, 11.86, -0.20, 95.5, 80.9, 93.3, 4.375, 3.414, 4.4876, 6C
2010/08/14, 00:02:21, 761.90, 0.00, 29.3, 29.20, 29.30, 1011.5, 1011.5, 1011.52, 33.01690, -76.49958, 64.3878, 34.2976, 0.00, 37.87, 208.6, 10.20, 37.9, 37.88, 0.0, 0.0, 80.4, 82.3, 311, 319, 5.2, 3.6, 80.40, 64.14000, 35.0586, 35.2669, 1555.717, 29.99, 35.8835, 117.36, 207.9, 11.88, -0.33, 92.5, 70.9, 94.1, 4.396, 3.530, 4.2628, 6C
2010/08/14, 00:03:21, 762.50, 0.00, 29.3, 29.20, 29.30, 1011.5, 1011.6, 1011.52, 33.01445, -76.50123, 64.3894, 34.2902, 0.00, 37.87, 207.8, 10.20, 37.9, 37.88, 0.0, 0.0, 80.9, 82.8, 318, 321, 5.5, 3.9, 80.90, 64.12000, 35.0713, 35.2290, 1555.663, 29.98, 35.8897, 117.68, 207.9, 11.85, -0.36, 101.1, 76.5, 98.0, 3.844, 3.273, 4.0341, 6C
2010/08/14, 00:04:21, 762.70, 0.00, 29.3, 29.20, 29.30, 1011.4, 1011.6, 1011.42, 33.01193, -76.50275, 64.3924, 34.3101, 0.00, 37.87, 207.0, 10.20, 37.9, 37.88, 0.0, 0.0, 81.0, 82.8, 312, 315, 4.8, 3.9, 81.00, 64.11000, 35.0827, 35.2034, 1555.630, 29.98, 35.8777, 116.72, 208.0, 12.02, -0.40, 89.9, 77.7, 91.8, 4.104, 3.688, 4.1837, 6C
2010/08/14, 00:05:21, 762.90, 0.00, 29.3, 29.20, 29.30, 1011.5, 1011.5, 1011.52, 33.00947, -76.50432, 64.3989, 34.3072, 0.00, 37.87, 209.1, 10.00, 37.9, 37.88, 0.0, 0.0, 80.9, 82.9, 312, 312, 4.9, 3.6, 80.90, 64.09000, 35.0850, 35.1818, 1555.595, 29.98, 35.8838, 115.84, 207.3, 11.82, -0.48, 88.2, 69.9, 92.3, 4.148, 3.926, 4.2615, 6C
2010/08/14, 00:06:21, 763.40, 0.00, 29.3, 29.20, 29.30, 1011.5, 1011.6, 1011.52, 33.00700, -76.50588, 64.3845, 34.3012, 0.00, 37.87, 209.3, 10.20, 37.9, 37.88, 0.0, 0.0, 80.9, 83.1, 314, 317, 5.2, 3.9, 80.90, 64.09000, 35.0559, 35.2195, 1555.631, 29.97, 35.8789, 117.68, 208.0, 11.95, -0.59, 93.2, 74.4, 91.8, 4.019, 3.546, 4.2628, 6C
2010/08/14, 00:07:21, 763.80, 0.00, 29.3, 29.20, 29.30, 1011.5, 1011.5, 1011.52, 33.00443, -76.50752, 64.3976, 34.3136, 0.00, 37.87, 207.7, 10.30, 37.9, 37.88, 0.0, 0.0, 80.7, 82.7, 308, 314, 5.2, 4.0, 80.70, 64.08000, 35.0622, 35.2008, 1555.605, 29.97, 35.8785, 116.72, 207.7, 11.81, -0.61, 91.8, 77.8, 92.1, 4.565, 3.765, 4.5472, 6C
2010/08/14, 00:08:21, 764.00, 0.00, 29.3, 29.20, 29.30, 1011.5, 1011.6, 1011.52, 33.00200, -76.50903, 64.3485, 34.3177, 0.00, 37.87, 207.8, 10.30, 37.9, 37.88, 0.0, 0.0, 80.5, 82.5, 314, 319, 4.7, 3.5, 80.50, 64.06000, 35.0745, 35.1684, 1555.561, 29.98, 35.8447, 117.04, 208.2, 12.09, -0.65, 87.9, 69.8, 86.5, 3.935, 3.485, 4.5399, 6C
2010/08/14, 00:09:21, 764.90, 0.00, 29.3, 29.20, 29.30, 1011.5, 1011.6, 1011.52, 32.99952, -76.51060, 64.3971, 34.3055, 0.00, 37.87, 209.5, 10.20, 37.9, 37.88, 0.0, 0.0, 81.1, 83.0, 304, 311, 5.1, 3.9, 81.10, 64.04000, 35.0726, 35.1565, 1555.538, 29.99, 35.8838, 116.40, 208.5, 11.99, -0.72, 88.3, 75.0, 85.4, 4.764, 3.905, 4.7539, 6C
2010/08/14, 00:10:21, 765.20, 0.00, 29.3, 29.20, 29.30, 1011.5, 1011.6, 1011.52, 32.99693, -76.51225, 64.4035, 34.3221, 0.00, 37.87, 207.8, 10.20, 37.9, 37.88, 0.0, 0.0, 81.2, 83.2, 300, 306, 4.6, 4.2, 81.20, 64.03000, 35.0599, 35.1605, 1555.532, 30.00, 35.8763, 116.08, 207.6, 11.99, -0.72, 80.6, 77.7, 82.6, 4.896, 4.332, 5.0037, 6C
2010/08/14, 00:11:21, 765.80, 0.00, 29.3, 29.20, 29.30, 1011.5, 1011.6, 1011.52, 32.99442, -76.51382, 64.4068, 34.3034, 0.00, 37.87, 207.4, 10.20, 37.9, 37.88, 0.0, 0.0, 81.3, 83.3, 305, 309, 4.5, 3.9, 81.30, 64.02000, 35.0834, 35.1162, 1555.479, 30.01, 35.8914, 117.68, 207.9, 11.79, -0.77, 82.8, 76.1, 84.0, 4.549, 4.114, 4.8617, 6C
2010/08/14, 00:12:21, 766.50, 0.00, 29.3, 29.20, 29.30, 1011.5, 1011.5, 1011.52, 32.99202, -76.51535, 64.4071, 34.3045, 0.00, 37.87, 207.8, 10.10, 37.9, 37.88, 0.0, 0.0, 81.7, 83.9, 310, 309, 5.0, 3.7, 81.70, 64.00000, 35.0886, 35.0920, 1555.441, 30.02, 35.8909, 117.68, 207.5, 11.77, -0.77, 89.8, 71.9, 82.9, 4.256, 4.016, 4.8161, 6C
2010/08/14, 00:13:21, 766.60, 0.00, 29.3, 29.20, 29.30, 1011.5, 1011.5, 1011.52, 32.98948, -76.51692, 64.3039, 34.3089, 0.00, 37.87, 206.8, 10.20, 37.9, 37.88, 0.0, 0.0, 82.0, 83.7, 309, 308, 5.1, 4.5, 82.00, 63.98000, 35.0779, 35.0898, 1555.427, 30.02, 35.8227, 115.84, 208.1, 11.98, -0.72, 90.9, 83.2, 91.6, 4.457, 4.325, 5.1165, 6C
2010/08/14, 00:14:21, 767.30, 0.00, 29.3, 29.20, 29.30, 1011.5, 1011.6, 1011.52, 32.98697, -76.51847, 64.4190, 34.3222, 0.00, 37.87, 207.9, 10.20, 37.9, 37.88, 0.0, 0.0, 81.1, 83.4, 304, 307, 5.0, 4.4, 81.10, 63.97000, 35.0791, 35.0780, 1555.407, 30.03, 35.8860, 115.52, 207.3, 11.88, -0.69, 86.3, 80.3, 86.4, 4.761, 4.319, 4.7946, 6C
2010/08/14, 00:15:21, 767.70, 0.00, 29.3, 29.20, 29.30, 1011.5, 1011.6, 1011.52, 32.98438, -76.52012, 64.4164, 34.3191, 0.00, 37.87, 207.6, 10.20, 37.9, 37.88, 0.0, 0.0, 81.3, 83.4, 308, 310, 4.9, 3.5, 81.30, 63.96000, 35.0850, 35.0576, 1555.377, 30.04, 35.8865, 116.40, 208.1, 11.87, -0.65, 87.8, 69.5, 87.2, 4.428, 3.997, 4.5936, 6C
2010/08/14, 00:16:21, 768.20, 0.00, 29.3, 29.20, 29.30, 1011.6, 1011.6, 1011.62, 32.98187, -76.52172, 64.4120, 34.3141, 0.00, 37.87, 207.2, 10.10, 37.9, 37.88, 0.0, 0.0, 81.7, 83.9, 304, 310, 5.1, 4.5, 81.70, 63.94000, 35.0724, 35.0637, 1555.375, 30.05, 35.8872, 117.04, 207.4, 11.71, -0.65, 87.4, 82.6, 87.9, 4.893, 4.212, 4.7368, 6C
2010/08/14, 00:17:21, 768.70, 0.00, 29.3, 29.20, 29.30, 1011.6, 1011.6, 1011.62, 32.97935, -76.52322, 64.4167, 34.3187, 0.00, 37.87, 208.7, 10.20, 37.9, 37.88, 0.0, 0.0, 81.0, 83.0, 306, 311, 4.9, 4.4, 81.00, 63.92000, 35.0735, 35.0390, 1555.333, 30.05, 35.8870, 117.36, 208.0, 11.50, -0.59, 86.9, 82.2, 81.5, 4.578, 4.037, 4.8229, 6C
2010/08/14, 00:18:21, 769.10, 0.00, 29.3, 29.20, 29.30, 1011.6, 1011.7, 1011.62, 32.97692, -76.52472, 64.4146, 34.3249, 0.00, 37.87, 207.4, 10.20, 37.9, 37.88, 0.0, 0.0, 81.2, 83.0, 300, 302, 4.7, 4.5, 81.20, 63.91000, 35.0635, 35.0470, 1555.337, 30.05, 35.8813, 115.20, 207.6, 11.73, -0.52, 81.7, 80.3, 86.5, 4.944, 4.719, 4.6301, 6C
2010/08/14, 00:19:21, 769.70, 0.00, 29.3, 29.20, 29.30, 1011.6, 1011.7, 1011.62, 32.97438, -76.52625, 64.4129, 34.3162, 0.00, 37.87, 206.9, 10.00, 37.9, 37.88, 0.0, 0.0, 81.3, 83.2, 314, 318, 4.9, 3.8, 81.30, 63.89000, 35.0888, 34.9902, 1555.263, 30.06, 35.8863, 117.68, 207.8, 11.62, -0.48, 90.4, 74.0, 86.4, 3.889, 3.424, 4.0956, 6C
2010/08/14, 00:20:20, 770.40, 0.00, 29.3, 29.20, 29.30, 1011.6, 1011.7, 1011.62, 32.97188, -76.52777, 64.4173, 34.3288, 0.00, 37.87, 206.9, 10.10, 37.9, 37.88, 0.0, 0.0, 81.3, 83.0, 306, 311, 4.8, 3.7, 81.30, 63.88000, 35.0852, 34.9852, 1555.250, 30.06, 35.8803, 117.36, 207.6, 11.42, -0.48, 85.1, 71.5, 85.3, 4.509, 3.910, 4.0445, 6C
2010/08/14, 00:21:21, 770.50, 0.00, 29.3, 29.20, 29.30, 1011.6, 1011.7, 1011.62, 32.96927, -76.52933, 64.4229, 34.3167, 0.00, 37.87, 206.0, 10.10, 37.9, 37.88, 0.0, 0.0, 81.4, 83.2, 314, 305, 5.1, 4.6, 81.40, 63.86000, 35.0745, 34.9887, 1555.245, 30.05, 35.8923, 117.04, 207.9, 11.64, -0.43, 92.2, 82.5, 79.7, 4.042, 4.590, 4.1325, 6C
2010/08/14, 00:22:21, 771.40, 0.00, 29.3, 29.20, 29.30, 1011.7, 1011.8, 1011.72, 32.96672, -76.53088, 64.4327, 34.3252, 0.00, 37.87, 206.3, 10.20, 37.9, 37.88, 0.0, 0.0, 80.9, 82.7, 304, 303, 4.9, 4.8, 80.90, 63.85000, 35.0653, 34.9904, 1555.239, 30.03, 35.8925, 114.88, 208.0, 11.77, -0.40, 86.0, 84.5, 82.6, 4.727, 4.764, 4.6090, 6C
2010/08/14, 00:23:21, 771.90, 0.00, 29.3, 29.20, 29.30, 1011.7, 1011.8, 1011.72, 32.96413, -76.53237, 64.4308, 34.3396, 0.00, 37.87, 206.1, 10.10, 37.9, 37.88, 0.0, 0.0, 81.5, 83.5, 296, 298, 4.6, 4.3, 81.50, 63.84000, 35.0693, 34.9704, 1555.208, 30.01, 35.8812, 114.88, 208.1, 11.76, -0.33, 78.5, 76.0, 83.9, 5.066, 4.808, 4.9805, 6C
2010/08/14, 00:24:21, 772.30, 0.00, 29.3, 29.20, 29.30, 1011.7, 1011.8, 1011.72, 32.96158, -76.53382, 64.4343, 34.3225, 0.00, 37.87, 206.2, 10.20, 37.9, 37.88, 0.0, 0.0, 81.9, 83.5, 310, 311, 4.3, 4.2, 81.90, 63.83000, 35.1078, 34.9041, 1555.130, 30.01, 35.8954, 114.00, 207.8, 11.69, -0.36, 78.1, 76.8, 73.3, 4.041, 3.951, 4.1713, 6C
2010/08/14, 00:25:21, 772.90, 0.00, 29.3, 29.20, 29.30, 1011.7, 1011.8, 1011.72, 32.95893, -76.53538, 64.4306, 34.3445, 0.00, 37.87, 206.1, 10.30, 37.9, 37.88, 0.0, 0.0, 81.9, 83.8, 301, 309, 4.4, 3.7, 81.90, 63.81000, 35.1100, 34.8838, 1555.097, 30.03, 35.8777, 115.52, 207.7, 11.99, -0.40, 77.0, 69.3, 79.3, 4.720, 4.036, 4.5138, 6C
2010/08/14, 00:26:21, 773.70, 0.00, 29.3, 29.20, 29.30, 1011.7, 1011.8, 1011.72, 32.95640, -76.53682, 64.4295, 34.3295, 0.00, 37.87, 206.5, 10.50, 37.9, 37.88, 0.0, 0.0, 81.8, 83.8, 301, 311, 3.9, 3.6, 81.80, 63.79000, 35.0882, 34.9026, 1555.108, 30.05, 35.8875, 116.40, 208.5, 11.86, -0.43, 71.6, 68.4, 72.5, 4.567, 3.888, 4.8170, 6C
2010/08/14, 00:27:21, 774.20, 0.00, 29.3, 29.20, 29.30, 1011.6, 1011.9, 1011.62, 32.95383, -76.53828, 64.4256, 34.3321, 0.00, 37.87, 205.8, 10.20, 37.9, 37.88, 0.0, 0.0, 81.5, 83.4, 308, 306, 3.8, 3.4, 81.50, 63.77000, 35.0992, 34.8680, 1555.058, 30.06, 35.8832, 117.68, 207.6, 11.95, -0.43, 70.5, 65.0, 75.3, 4.177, 4.281, 4.3155, 6C
2010/08/14, 00:28:21, 774.70, 0.00, 29.3, 29.20, 29.30, 1011.7, 1011.8, 1011.72, 32.95120, -76.53983, 64.4383, 34.3392, 0.00, 37.87, 205.9, 10.60, 37.9, 37.88, 0.0, 0.0, 81.9, 84.0, 306, 311, 4.4, 3.6, 81.90, 63.76000, 35.0786, 34.8872, 1555.071, 30.07, 35.8862, 114.56, 208.1, 12.01, -0.55, 79.1, 68.8, 74.3, 4.388, 3.938, 4.5023, 6C
2010/08/14, 00:29:21, 775.10, 0.00, 29.3, 29.20, 29.30, 1011.7, 1011.8, 1011.72, 32.94862, -76.54133, 64.4408, 34.3338, 0.00, 37.87, 205.8, 10.30, 37.9, 37.88, 0.0, 0.0, 81.3, 83.4, 305, 308, 4.5, 4.1, 81.30, 63.75000, 35.1023, 34.8405, 1555.012, 30.08, 35.8916, 116.72, 208.2, 12.08, -0.48, 79.0, 74.3, 81.5, 4.370, 4.067, 4.5042, 6C
2010/08/14, 00:30:21, 775.60, 0.00, 29.3, 29.20, 29.30, 1011.8, 1011.8, 1011.82, 32.94607, -76.54280, 64.4262, 34.3344, 0.00, 37.87, 205.9, 10.50, 37.9, 37.88, 0.0, 0.0, 80.9, 83.0, 310, 310, 4.4, 3.3, 80.90, 63.73000, 35.0974, 34.8330, 1554.994, 30.09, 35.8820, 115.52, 208.1, 12.04, -0.48, 79.3, 63.7, 68.9, 4.098, 4.032, 4.4335, 6C
2010/08/14, 00:31:21, 776.30, 0.00, 29.3, 29.20, 29.30, 1011.8, 1011.8, 1011.82, 32.94333, -76.54440, 64.4430, 34.3392, 0.00, 37.87, 205.5, 10.40, 37.9, 37.88, 0.0, 0.0, 81.1, 83.0, 304, 306, 4.5, 4.2, 81.10, 63.72000, 35.0784, 34.8488, 1555.003, 30.09, 35.8892, 116.40, 208.2, 12.10, -0.65, 80.3, 77.1, 75.6, 4.527, 4.301, 4.2836, 6C
2010/08/14, 00:32:21, 776.80, 0.00, 29.3, 29.20, 29.30, 1011.8, 1011.9, 1011.82, 32.94073, -76.54590, 64.4462, 34.3459, 0.00, 37.87, 206.5, 10.40, 37.9, 37.88, 0.0, 0.0, 81.2, 83.3, 301, 304, 3.9, 3.5, 81.20, 63.71000, 35.0981, 34.8097, 1554.953, 30.09, 35.8865, 114.88, 208.1, 12.06, -0.65, 71.8, 67.2, 74.0, 4.621, 4.367, 4.3961, 6C
2010/08/14, 00:33:21, 777.40, 0.00, 29.3, 29.20, 29.30, 1011.8, 1011.9, 1011.82, 32.93815, -76.54740, 64.4069, 34.3423, 0.00, 37.87, 207.0, 10.30, 37.9, 37.88, 0.0, 0.0, 81.6, 83.6, 301, 303, 4.6, 4.4, 81.60, 63.69000, 35.1101, 34.7744, 1554.903, 30.08, 35.8643, 115.20, 208.0, 12.04, -0.77, 80.3, 78.6, 78.7, 4.868, 4.654, 4.2906, 6C
2010/08/14, 00:34:21, 777.70, 0.00, 29.3, 29.20, 29.30, 1011.8, 1011.9, 1011.82, 32.93555, -76.54893, 64.3918, 34.3471, 0.00, 37.87, 206.2, 10.40, 37.9, 37.88, 0.0, 0.0, 81.8, 83.8, 303, 302, 4.5, 4.4, 81.80, 63.68000, 35.0874, 34.7969, 1554.920, 30.08, 35.8514, 115.20, 208.1, 12.26, -0.72, 79.7, 78.2, 76.4, 4.663, 4.705, 4.6285, 6C
2010/08/14, 00:35:21, 778.00, 0.00, 29.3, 29.20, 29.30, 1011.8, 1011.9, 1011.82, 32.93297, -76.55047, 64.4090, 34.3274, 0.00, 37.87, 206.6, 10.30, 37.9, 37.88, 0.0, 0.0, 82.3, 84.4, 302, 300, 4.7, 4.4, 82.30, 63.66000, 35.0844, 34.7837, 1554.894, 30.07, 35.8760, 118.24, 208.0, 12.08, -0.72, 82.2, 78.2, 80.9, 4.800, 4.840, 4.5665, 6C
2010/08/14, 00:36:21, 778.40, 0.00, 29.3, 29.20, 29.30, 1011.8, 1011.9, 1011.82, 32.93040, -76.55198, 64.4185, 34.3163, 0.00, 37.87, 206.5, 10.40, 37.9, 37.88, 0.0, 0.0, 82.6, 84.7, 306, 309, 4.3, 3.8, 82.60, 63.64000, 35.1067, 34.7374, 1554.834, 30.06, 35.8898, 117.68, 208.0, 11.99, -0.72, 78.7, 72.3, 77.9, 4.285, 3.990, 4.1471, 6C
2010/08/14, 00:37:21, 778.90, 0.00, 29.3, 29.20, 29.30, 1011.8, 1011.9, 1011.82, 32.92782, -76.55357, 64.2813, 34.3190, 0.00, 37.87, 207.9, 10.30, 37.9, 37.88, 0.0, 0.0, 82.1, 84.3, 306, 308, 3.9, 3.2, 82.10, 63.63000, 35.0856, 34.7535, 1554.841, 30.06, 35.8014, 116.72, 208.5, 12.07, -0.72, 72.4, 63.1, 73.4, 4.315, 4.164, 4.4326, 6C
2010/08/14, 00:38:21, 779.40, 0.00, 29.3, 29.20, 29.30, 1011.8, 1011.9, 1011.82, 32.92523, -76.55518, 64.4159, 34.3376, 0.00, 37.87, 206.2, 10.30, 37.9, 37.88, 0.0, 0.0, 81.6, 84.0, 305, 306, 5.0, 4.8, 81.60, 63.61000, 35.1040, 34.7130, 1554.788, 30.06, 35.8732, 115.20, 208.0, 11.98, -0.72, 85.7, 83.7, 88.4, 4.637, 4.485, 4.4967, 6C
2010/08/14, 00:39:21, 780.00, 0.00, 29.3, 29.20, 29.30, 1011.8, 1011.9, 1011.82, 32.92267, -76.55665, 64.4548, 34.3342, 0.00, 37.87, 206.9, 10.30, 37.9, 37.88, 0.0, 0.0, 81.1, 83.5, 311, 314, 4.0, 3.1, 81.10, 63.60000, 35.0973, 34.7106, 1554.777, 30.06, 35.9001, 114.56, 208.5, 12.03, -0.77, 74.5, 61.3, 76.4, 3.998, 3.860, 4.3023, 6C
2010/08/14, 00:40:21, 780.50, 0.00, 29.3, 29.20, 29.30, 1011.8, 1011.9, 1011.82, 32.92013, -76.55825, 64.4537, 34.3424, 0.00, 37.87, 206.5, 10.30, 37.9, 37.88, 0.0, 0.0, 80.9, 83.3, 310, 312, 4.8, 3.6, 80.90, 63.58000, 35.0986, 34.6900, 1554.742, 30.05, 35.8937, 115.20, 208.1, 11.93, -0.92, 86.9, 70.7, 87.6, 4.276, 3.926, 4.4590, 6C
2010/08/14, 00:41:21, 780.90, 0.00, 29.3, 29.20, 29.30, 1011.8, 1011.9, 1011.82, 32.91755, -76.55982, 64.4514, 34.3303, 0.00, 37.87, 207.6, 10.30, 37.9, 37.88, 0.0, 0.0, 81.6, 83.4, 305, 307, 4.2, 3.5, 81.60, 63.56000, 35.1062, 34.6656, 1554.706, 30.05, 35.9007, 117.92, 208.1, 12.01, -0.77, 77.2, 68.2, 81.5, 4.408, 4.170, 3.8638, 6C
2010/08/14, 00:42:21, 781.50, 0.00, 29.3, 29.20, 29.30, 1011.8, 1011.8, 1011.82, 32.91508, -76.56133, 64.4409, 34.3362, 0.00, 37.87, 207.1, 10.30, 37.9, 37.88, 0.0, 0.0, 81.9, 84.0, 312, 316, 4.7, 3.1, 81.90, 63.55000, 35.0791, 34.6980, 1554.736, 30.05, 35.8900, 115.84, 207.6, 12.05, -0.72, 85.9, 62.5, 76.6, 4.096, 3.744, 3.9601, 6C
2010/08/14, 00:43:21, 781.90, 0.00, 29.4, 29.20, 29.40, 1011.8, 1011.9, 1011.82, 32.91253, -76.56292, 64.2134, 34.3434, 0.00, 37.87, 208.0, 10.00, 37.9, 37.88, 0.0, 0.0, 82.5, 84.7, 312, 318, 4.7, 3.7, 82.50, 63.53000, 35.1150, 34.6246, 1554.642, 30.05, 35.7417, 117.36, 208.2, 12.04, -0.72, 88.4, 74.2, 80.6, 4.025, 3.445, 4.1512, 6C
2010/08/14, 00:44:21, 782.50, 0.00, 29.4, 29.20, 29.40, 1011.8, 1011.9, 1011.82, 32.90993, -76.56458, 64.4548, 34.3438, 0.00, 37.87, 208.4, 10.20, 37.9, 37.88, 0.0, 0.0, 81.5, 83.8, 309, 313, 4.7, 3.7, 81.50, 63.52000, 35.0957, 34.6445, 1554.658, 30.05, 35.8934, 116.40, 207.8, 12.04, -0.69, 84.6, 71.6, 84.1, 4.374, 3.920, 3.8986, 6C
2010/08/14, 00:45:21, 782.80, 0.00, 29.4, 29.20, 29.40, 1011.8, 1011.9, 1011.82, 32.90745, -76.56618, 64.4681, 34.3667, 0.00, 37.87, 207.9, 10.20, 37.9, 37.88, 0.0, 0.0, 81.3, 83.7, 308, 310, 4.6, 3.9, 81.30, 63.51000, 35.1085, 34.6119, 1554.612, 30.04, 35.8857, 114.56, 208.5, 11.93, -0.72, 84.9, 76.1, 86.9, 4.363, 4.061, 4.4228, 6C
2010/08/14, 00:46:21, 783.40, 0.00, 29.4, 29.20, 29.40, 1011.8, 1011.9, 1011.82, 32.90493, -76.56775, 64.4607, 34.3580, 0.00, 37.87, 206.3, 10.30, 37.9, 37.88, 0.0, 0.0, 81.9, 84.0, 312, 310, 4.8, 3.4, 81.90, 63.49000, 35.1053, 34.5984, 1554.585, 30.03, 35.8872, 113.68, 207.6, 11.84, -0.69, 88.3, 68.7, 85.1, 4.163, 4.061, 4.0177, 6C
2010/08/14, 00:47:21, 783.80, 0.00, 29.4, 29.20, 29.40, 1011.9, 1011.9, 1011.92, 32.90252, -76.56927, 64.4592, 34.3410, 0.00, 37.87, 208.2, 10.20, 37.9, 37.88, 0.0, 0.0, 80.8, 83.3, 306, 308, 4.0, 3.4, 80.80, 63.47000, 35.0940, 34.5949, 1554.568, 30.03, 35.8981, 114.56, 208.0, 11.78, -0.65, 76.2, 68.3, 80.1, 4.343, 4.138, 4.2684, 6C
2010/08/14, 00:48:21, 783.90, 0.00, 29.4, 29.20, 29.40, 1011.9, 1012.0, 1011.92, 32.89997, -76.57092, 64.3278, 34.3551, 0.00, 37.87, 207.9, 10.30, 37.9, 37.88, 0.0, 0.0, 81.6, 83.7, 310, 313, 4.4, 3.2, 81.60, 63.45000, 35.1108, 34.5579, 1554.519, 30.02, 35.8055, 114.88, 208.0, 11.86, -0.59, 82.7, 65.9, 81.8, 4.186, 3.884, 4.2036, 6C
2010/08/14, 00:49:21, 784.30, 0.00, 29.4, 29.30, 29.40, 1011.9, 1012.0, 1011.92, 32.89755, -76.57243, 64.4802, 34.3648, 0.00, 37.87, 208.1, 10.20, 37.9, 37.88, 0.0, 0.0, 81.6, 83.6, 314, 316, 3.9, 2.8, 81.60, 63.43000, 35.0916, 34.5674, 1554.516, 30.02, 35.8947, 114.00, 208.0, 11.98, -0.48, 76.0, 59.3, 76.3, 3.797, 3.783, 4.1931, 6C
2010/08/14, 00:50:21, 784.80, 0.00, 29.4, 29.30, 29.40, 1011.9, 1012.0, 1011.92, 32.89497, -76.57408, 64.4790, 34.3541, 0.00, 37.87, 208.2, 10.10, 37.9, 37.88, 0.0, 0.0, 82.4, 84.6, 311, 312, 4.5, 3.6, 82.40, 63.42000, 35.0874, 34.5648, 1554.507, 30.01, 35.9014, 115.20, 207.5, 11.91, -0.43, 83.2, 70.8, 83.9, 4.166, 3.970, 4.0745, 6C
2010/08/14, 00:51:21, 785.00, 0.00, 29.4, 29.30, 29.40, 1012.0, 1012.0, 1012.02, 32.89255, -76.57563, 64.4768, 34.3641, 0.00, 37.87, 208.1, 10.20, 37.9, 37.88, 0.0, 0.0, 82.2, 84.5, 309, 306, 4.2, 3.5, 82.20, 63.40000, 35.0832, 34.5531, 1554.482, 30.01, 35.8930, 115.84, 207.8, 11.99, -0.36, 78.7, 69.0, 80.0, 4.215, 4.310, 4.2492, 6C
2010/08/14, 00:52:21, 785.50, 0.00, 29.4, 29.30, 29.40, 1012.0, 1012.0, 1012.02, 32.88995, -76.57727, 64.4755, 34.3562, 0.00, 37.87, 208.3, 10.20, 37.9, 37.88, 0.0, 0.0, 83.0, 85.0, 306, 305, 4.1, 3.9, 83.00, 63.39000, 35.0942, 34.5256, 1554.444, 30.01, 35.8977, 115.52, 207.7, 11.95, -0.29, 77.4, 74.6, 80.7, 4.386, 4.410, 3.9238, 6C
2010/08/14, 00:53:21, 785.90, 0.00, 29.4, 29.30, 29.40, 1012.0, 1012.1, 1012.02, 32.88747, -76.57887, 64.4793, 34.3517, 0.00, 37.87, 208.3, 10.20, 37.9, 37.88, 0.0, 0.0, 82.7, 85.0, 311, 321, 4.0, 3.1, 82.70, 63.37000, 35.1045, 34.4956, 1554.401, 30.01, 35.9033, 117.92, 208.0, 11.85, -0.24, 78.0, 64.0, 80.1, 4.082, 3.507, 4.5343, 6C
2010/08/14, 00:54:21, 786.20, 0.00, 29.4, 29.30, 29.40, 1012.0, 1012.1, 1012.02, 32.88498, -76.58048, 64.4803, 34.3501, 0.00, 37.87, 207.9, 10.00, 37.9, 37.88, 0.0, 0.0, 82.7, 84.9, 304, 313, 4.2, 3.4, 82.70, 63.36000, 35.1107, 34.4749, 1554.370, 30.02, 35.9050, 114.56, 208.1, 11.98, -0.20, 78.8, 68.9, 74.9, 4.498, 3.803, 4.3744, 6C
2010/08/14, 00:55:21, 786.70, 0.00, 29.4, 29.30, 29.40, 1012.0, 1012.1, 1012.02, 32.88248, -76.58205, 64.4789, 34.3565, 0.00, 37.87, 207.6, 10.10, 37.9, 37.88, 0.0, 0.0, 82.6, 84.8, 304, 307, 4.7, 4.2, 82.60, 63.34000, 35.1023, 34.4680, 1554.349, 30.02, 35.8997, 115.52, 207.7, 11.91, -0.07, 84.2, 79.1, 86.7, 4.740, 4.361, 4.2466, 6C
2010/08/14, 00:56:21, 786.60, 0.00, 29.4, 29.30, 29.40, 1012.0, 1012.1, 1012.02, 32.87998, -76.58363, 64.4825, 34.3619, 0.00, 37.87, 208.5, 10.20, 37.9, 37.88, 0.0, 0.0, 82.8, 84.8, 301, 302, 4.0, 4.0, 82.80, 63.33000, 35.1062, 34.4527, 1554.326, 30.02, 35.8982, 115.52, 207.8, 12.00, -0.33, 75.4, 75.7, 76.6, 4.653, 4.586, 3.9300, 6C
2010/08/14, 00:57:21, 787.30, 0.00, 29.4, 29.20, 29.40, 1012.0, 1012.0, 1012.02, 32.87760, -76.58522, 64.4804, 34.3699, 0.00, 37.87, 208.4, 10.00, 37.9, 37.88, 0.0, 0.0, 82.1, 84.3, 302, 303, 4.6, 4.5, 82.10, 63.31000, 35.1021, 34.4418, 1554.302, 30.02, 35.8912, 114.88, 207.7, 11.95, -0.33, 83.7, 83.0, 84.9, 4.844, 4.731, 4.7480, 6C
2010/08/14, 00:58:20, 787.50, 0.00, 29.4, 29.20, 29.40, 1012.0, 1012.1, 1012.02, 32.87512, -76.58683, 64.4833, 34.3870, 0.00, 37.87, 208.7, 10.10, 37.9, 37.88, 0.0, 0.0, 82.5, 84.5, 303, 302, 3.7, 3.7, 82.50, 63.29000, 35.1051, 34.4159, 1554.258, 30.02, 35.8811, 115.52, 208.2, 11.75, -0.40, 73.2, 73.0, 73.8, 4.426, 4.489, 4.4764, 6C
2010/08/14, 00:59:21, 787.90, 0.00, 29.4, 29.20, 29.40, 1012.0, 1012.1, 1012.02, 32.87253, -76.58848, 64.5161, 34.3762, 0.00, 37.87, 207.9, 10.00, 37.9, 37.88, 0.0, 0.0, 82.4, 84.8, 296, 299, 3.9, 3.8, 82.40, 63.28000, 35.1038, 34.4087, 1554.244, 30.03, 35.9093, 115.52, 208.2, 11.80, -0.48, 74.0, 73.6, 74.9, 4.853, 4.630, 4.6320, 6C
2010/08/14, 01:00:21, 788.40, 0.00, 29.4, 29.20, 29.40, 1012.0, 1012.1, 1012.02, 32.87005, -76.59010, 64.5205, 34.3750, 0.00, 37.87, 209.0, 10.20, 37.9, 37.88, 0.0, 0.0, 82.7, 84.6, 305, 305, 3.8, 3.4, 82.70, 63.26000, 35.1121, 34.3787, 1554.199, 30.04, 35.9129, 117.68, 207.9, 11.89, -0.48, 74.4, 69.2, 73.9, 4.380, 4.318, 4.0246, 6C
2010/08/14, 01:01:21, 788.60, 0.00, 29.4, 29.20, 29.40, 1012.0, 1012.1, 1012.02, 32.86765, -76.59163, 64.5259, 34.3651, 0.00, 37.87, 207.3, 10.00, 37.9, 37.88, 0.0, 0.0, 82.4, 84.7, 302, 306, 3.8, 3.6, 82.40, 63.24000, 35.0884, 34.3997, 1554.213, 30.04, 35.9233, 115.84, 208.1, 12.05, -0.55, 74.6, 72.7, 75.7, 4.544, 4.251, 4.3562, 6C
2010/08/14, 01:02:21, 789.10, 0.00, 29.4, 29.20, 29.40, 1012.0, 1012.1, 1012.02, 32.86517, -76.59323, 64.5338, 34.3777, 0.00, 37.87, 209.0, 10.20, 37.9, 37.88, 0.0, 0.0, 81.9, 84.2, 302, 306, 3.9, 3.6, 81.90, 63.23000, 35.1036, 34.3610, 1554.158, 30.05, 35.9194, 114.56, 208.0, 12.02, -0.48, 74.3, 71.1, 76.5, 4.602, 4.289, 4.4647, 6C
2010/08/14, 01:03:21, 789.20, 0.00, 29.4, 29.20, 29.40, 1012.0, 1012.1, 1012.02, 32.86268, -76.59485, 64.5257, 34.3798, 0.00, 37.87, 209.2, 10.10, 37.9, 37.88, 0.0, 0.0, 82.3, 84.4, 302, 304, 3.6, 3.1, 82.30, 63.21000, 35.0905, 34.3667, 1554.155, 30.06, 35.9128, 114.88, 208.1, 12.03, -0.43, 70.7, 64.5, 75.5, 4.537, 4.364, 4.5663, 6C
2010/08/14, 01:04:21, 789.70, 0.00, 29.4, 29.20, 29.40, 1012.1, 1012.1, 1012.12, 32.86022, -76.59648, 64.5410, 34.3743, 0.00, 37.87, 209.4, 10.20, 37.9, 37.88, 0.0, 0.0, 82.5, 84.6, 309, 307, 4.3, 3.6, 82.50, 63.20000, 35.0849, 34.3611, 1554.139, 30.06, 35.9263, 115.20, 208.2, 11.95, -0.40, 81.4, 71.8, 73.6, 4.242, 4.251, 4.1808, 6C
2010/08/14, 01:05:21, 789.80, 0.00, 29.4, 29.20, 29.40, 1012.1, 1012.2, 1012.12, 32.85773, -76.59812, 64.5445, 34.3757, 0.00, 37.87, 209.1, 10.10, 37.9, 37.88, 0.0, 0.0, 82.4, 84.5, 307, 309, 3.4, 3.0, 82.40, 63.18000, 35.0923, 34.3379, 1554.105, 30.07, 35.9275, 114.88, 208.1, 11.97, -0.40, 69.7, 64.3, 73.4, 4.281, 4.162, 4.2576, 6C
2010/08/14, 01:06:21, 790.20, 0.00, 29.4, 29.20, 29.40, 1012.1, 1012.2, 1012.12, 32.85523, -76.59978, 64.5404, 34.3851, 0.00, 37.87, 208.8, 10.20, 37.9, 37.88, 0.0, 0.0, 82.9, 84.9, 306, 302, 4.2, 3.9, 82.90, 63.16000, 35.1003, 34.3020, 1554.049, 30.08, 35.9184, 114.00, 207.9, 11.82, -0.33, 80.3, 75.7, 75.2, 4.463, 4.652, 3.9990, 6C
2010/08/14, 01:07:21, 790.60, 0.00, 29.4, 29.20, 29.40, 1012.1, 1012.2, 1012.12, 32.85270, -76.60145, 64.5417, 34.3806, 0.00, 37.87, 208.5, 10.20, 37.9, 37.88, 0.0, 0.0, 82.4, 84.8, 304, 308, 4.1, 3.8, 82.40, 63.14000, 35.0904, 34.3029, 1554.040, 30.08, 35.9223, 114.32, 208.1, 11.82, -0.33, 77.7, 74.6, 79.8, 4.559, 4.226, 4.5980, 6C
2010/08/14, 01:08:21, 790.70, 0.00, 29.4, 29.20, 29.40, 1012.1, 1012.2, 1012.12, 32.85020, -76.60308, 64.5362, 34.3834, 0.00, 37.87, 208.5, 10.10, 37.9, 37.88, 0.0, 0.0, 82.1, 84.3, 300, 302, 4.0, 3.9, 82.10, 63.13000, 35.0809, 34.3069, 1554.038, 30.08, 35.9169, 116.08, 208.0, 11.88, -0.20, 75.8, 75.1, 75.6, 4.760, 4.599, 4.4124, 6C
2010/08/14, 01:09:21, 790.90, 0.00, 29.4, 29.30, 29.40, 1012.1, 1012.2, 1012.12, 32.84777, -76.60467, 64.5353, 34.3860, 0.00, 37.87, 209.0, 10.10, 37.9, 37.88, 0.0, 0.0, 82.6, 84.7, 308, 310, 4.1, 3.4, 82.60, 63.12000, 35.0933, 34.2760, 1553.995, 30.08, 35.9145, 114.32, 208.1, 11.93, -0.19, 78.8, 69.4, 72.1, 4.220, 4.005, 4.3471, 6C